Temp
63 62 61 61 61 61 61 61 61 61 61 61 61 61 61 61 61 68 67 77 77 70 68 84 85 86 87 85 89 90 75 71 76 79 84 95 91 95 96 94 95 96 95 97 81
62 62 61 61 61 60 60 60 60 61 61 61 61 61 61 61 66 69 79 74 70 70 76 79 81 84 81 82 85 81 73 75 85 87 86 92 93 92 91 88 89 92 95 97 98
61 61 61 61 61 60 60 60 60 60 61 60 60 60 61 64 67 79 74 72 69 72 82 86 88 84 78 84 83 80 72 82 85 89 90 90 91 94 90 86 91 88 91 92 94
61 61 61 61 60 60 60 60 61 61 60 60 60 60 61 68 62 81 71 70 69 77 79 82 82 78 76 76 83 76 81 83 85 88 87 85 90 88 90 92 96 95 92 94 92
59 60 60 60 59 59 59 59 59 59 59 59 60 60 63 64 69 82 71 71 75 79 78 79 78 79 74 79 81 77 80 84 86 86 87 88 83 85 87 95 97 96 89 90 91
59 59 59 59 59 59 59 58 58 58 59 59 60 60 60 55 86 91 86 77 80 79 80 83 81 84 80 79 78 82 81 82 84 84 85 82 82 85 88 94 94 92 90 90 88
59 58 58 58 59 58 58 58 58 58 59 60 61 62 58 65 86 89 88 82 85 83 80 85 87 81 81 76 83 81 74 78 79 82 80 84 76 78 88 91 90 87 91 91 90
58 58 58 58 58 58 58 58 58 59 60 61 61 59 54 82 84 83 87 84 87 86 84 87 88 82 80 83 79 74 74 67 78 79 81 80 68 81 88 87 87 89 86 90 89
58 58 58 58 58 58 58 57 58 59 60 61 61 59 63 77 74 83 85 80 82 83 83 85 83 76 78 71 69 71 63 66 71 81 78 76 70 81 88 86 84 86 88 87 89
58 57 57 58 57 57 57 57 61 59 61 65 65 53 65 71 80 81 85 83 77 77 75 76 75 70 72 69 59 64 65 67 67 76 77 74 73 79 84 84 83 86 87 88 88
58 57 57 57 57 57 59 67 63 51 55 61 65 66 76 81 85 80 83 79 77 73 66 71 65 62 68 71 73 72 69 68 72 78 75 73 73 77 82 82 83 85 86 87 88
57 57 57 57 57 56 58 60 70 73 61 66 67 71 76 81 72 77 84 71 70 64 70 67 62 73 76 74 70 70 67 67 72 77 75 73 71 77 80 81 83 84 84 86 88
56 56 56 56 56 60 64 66 78 75 59 67 74 70 73 77 71 74 77 74 69 66 68 65 70 75 73 70 67 67 66 66 66 72 75 72 69 73 79 82 84 85 86 87 87
56 56 56 56 58 71 67 78 80 76 53 63 71 74 77 76 67 83 80 75 72 67 70 69 76 72 70 67 70 62 72 70 68 65 59 70 57 68 74 76 80 83 85 86 87
56 56 56 55 59 61 73 79 78 72 38 71 72 84 78 69 74 72 82 76 68 69 70 66 69 69 66 67 72 66 74 71 69 65 64 64 56 63 72 72 77 81 83 86 88
56 56 55 61 67 68 74 75 70 50 39 63 73 68 69 69 70 76 74 78 78 71 72 71 78 75 72 74 74 75 71 70 69 67 54 62 54 56 61 64 77 81 84 84 87
55 55 56 63 62 79 77 66 50 43 65 62 65 67 67 65 65 67 65 63 61 57 59 66 70 75 76 68 74 72 65 54 50 53 52 67 59 59 60 58 76 79 78 79 81
54 53 60 71 73 71 70 56 41 55 58 68 66 64 51 61 65 64 61 59 65 66 62 56 54 68 74 69 67 68 65 56 44 47 55 66 56 64 68 70 78 79 79 79 79
52 68 70 76 77 69 58 46 49 56 63 62 66 60 60 61 51 49 54 60 64 67 58 57 58 73 73 74 74 66 62 71 58 57 54 59 65 70 74 74 75 74 75 74 75
58 63 69 77 73 60 48 46 56 65 67 64 52 57 51 55 46 41 45 59 61 70 72 63 53 68 71 74 74 69 71 57 62 42 41 52 51 61 67 69 72 71 71 73 75
59 59 69 73 63 48 46 54 61 68 68 61 57 51 48 49 47 43 43 54 68 69 71 65 58 59 67 64 63 66 60 61 62 61 49 43 46 63 66 72 71 72 73 74 74
55 50 71 67 43 46 50 55 50 61 64 58 59 57 52 48 45 42 42 47 55 72 64 67 59 52 59 69 72 70 65 58 51 46 56 55 56 67 55 75 74 74 74 76 76
47 57 72 69 40 49 49 49 55 51 56 56 56 59 50 46 43 47 50 57 62 63 65 66 58 45 47 49 65 61 64 64 58 58 47 45 50 70 69 73 74 73 73 74 75
47 47 59 54 54 46 44 49 50 60 57 58 52 56 54 46 48 46 47 50 56 65 67 67 60 53 46 53 60 56 61 63 57 40 47 46 45 58 65 66 69 72 73 75 74
45 47 47 41 45 48 50 54 51 48 58 52 52 54 50 42 44 40 41 45 56 61 69 64 53 59 49 58 56 56 60 60 58 59 52 57 56 58 61 61 66 70 72 72 72
40 39 42 47 50 47 49 50 49 49 51 48 42 49 48 39 47 39 40 42 56 64 61 60 52 58 50 57 54 46 59 61 61 61 61 61 58 66 61 68 68 68 69 69 68
53 51 42 42 45 43 42 45 48 50 49 46 47 49 42 42 49 52 49 48 51 56 55 53 56 52 47 55 56 49 57 59 61 63 63 57 64 70 66 67 68 69 69 68 67
MSLP
1019.65 1019.37 1019.13 1018.87 1018.57 1018.31 1018.07 1017.79 1017.46 1017.22 1016.99 1016.74 1016.41 1016.04 1015.59 1015.14 1014.75 1013.78 1011.46 1009.55 1009.67 1010.05 1010.66 1009.35 1008.49 1007.93 1007.50 1006.18 1005.46 1005.09 1003.84 1001.53 1000.53 999.69 998.76 998.16 998.03 999.49 1000.08 999.49 999.89 999.73 999.72 999.54 1002.42
1019.51 1019.18 1018.88 1018.64 1018.39 1018.12 1017.81 1017.46 1017.13 1016.86 1016.61 1016.35 1016.20 1016.00 1015.61 1015.06 1013.71 1010.81 1008.19 1008.63 1009.39 1010.13 1010.00 1008.62 1007.27 1006.85 1006.23 1005.38 1004.76 1004.08 1002.80 1001.35 1001.09 1000.12 999.22 998.48 998.02 998.90 999.35 1000.11 1000.12 1000.45 1000.76 999.79 1000.61
1019.31 1018.91 1018.62 1018.36 1018.02 1017.70 1017.43 1017.18 1016.88 1016.54 1016.30 1016.10 1015.94 1015.75 1015.45 1014.83 1011.99 1006.60 1006.79 1007.77 1009.10 1009.76 1008.84 1007.37 1006.36 1005.96 1005.21 1004.36 1003.81 1003.52 1002.10 1001.74 1001.13 1000.35 1000.01 999.04 998.53 998.90 999.26 999.14 999.82 1000.18 1001.10 1000.91 1000.24
1019.03 1018.65 1018.31 1017.85 1017.51 1017.28 1017.01 1016.66 1016.39 1016.21 1016.01 1015.80 1015.65 1015.54 1015.28 1014.16 1009.32 1006.89 1007.95 1008.50 1009.13 1009.19 1008.60 1007.12 1006.21 1005.29 1004.48 1003.44 1003.23 1002.70 1002.22 1001.87 1001.34 1000.68 1000.50 999.95 999.77 999.15 999.10 998.58 999.26 1000.24 1002.03 1001.30 1001.70
1019.14 1018.77 1018.25 1017.92 1017.54 1017.14 1016.77 1016.38 1016.06 1015.73 1015.55 1015.50 1015.37 1015.22 1014.66 1011.88 1007.82 1007.48 1008.00 1008.74 1008.95 1008.45 1007.46 1006.32 1005.55 1004.67 1003.66 1003.03 1002.63 1002.09 1001.82 1001.50 1001.53 1001.35 1000.80 1000.57 1000.68 1000.33 999.69 999.23 999.37 1000.55 1002.46 1002.02 1002.00
1019.00 1018.54 1018.11 1017.68 1017.18 1016.80 1016.36 1016.04 1015.70 1015.39 1015.10 1014.95 1014.95 1014.97 1013.79 1010.07 1006.09 1005.29 1006.37 1007.92 1007.38 1007.33 1006.55 1005.57 1004.56 1004.11 1003.32 1002.72 1002.07 1001.88 1001.85 1001.63 1001.49 1001.24 1001.28 1001.03 1001.06 1001.00 1000.25 999.85 999.44 1000.37 1001.45 1001.97 1002.50
1018.64 1018.22 1017.75 1017.28 1016.86 1016.33 1015.91 1015.52 1015.18 1014.87 1014.51 1014.22 1014.10 1014.20 1012.26 1007.57 1005.58 1005.40 1005.68 1006.13 1006.09 1006.08 1005.42 1005.13 1004.43 1004.00 1003.64 1002.78 1002.54 1002.07 1001.71 1001.49 1001.55 1001.07 1001.11 1001.48 1000.99 1000.10 1000.24 1000.20 999.56 999.90 1000.50 1001.58 1002.25
1018.49 1017.97 1017.49 1016.96 1016.40 1015.98 1015.54 1015.00 1014.51 1014.05 1013.61 1013.34 1013.36 1013.21 1009.80 1005.63 1005.86 1005.50 1005.00 1005.11 1005.34 1005.41 1005.32 1004.89 1004.51 1004.05 1003.32 1002.83 1002.27 1002.03 1001.87 1000.81 1000.63 1000.99 1001.12 1001.42 999.05 999.90 1000.28 1000.17 999.68 999.74 1000.51 1000.79 1001.73
1018.14 1017.55 1017.01 1016.48 1016.04 1015.55 1014.93 1014.45 1013.87 1013.28 1012.81 1012.54 1012.45 1011.69 1006.76 1004.84 1004.97 1004.37 1004.50 1004.36 1004.90 1005.19 1005.32 1005.09 1004.56 1004.04 1003.33 1002.67 1001.73 1001.21 1000.25 1000.09 1000.00 1000.01 1000.46 1000.50 999.50 999.78 999.37 999.31 999.36 999.68 999.87 1000.54 1000.80
1017.92 1017.31 1016.87 1016.41 1015.96 1015.20 1014.70 1013.90 1012.66 1012.74 1012.49 1011.86 1011.20 1010.93 1005.81 1002.91 1002.72 1003.39 1003.81 1004.26 1004.36 1004.67 1004.80 1004.45 1004.07 1003.14 1002.17 1001.36 999.94 999.38 999.50 999.62 999.15 999.21 999.46 999.17 998.85 999.40 999.23 999.22 998.97 998.97 999.40 999.64 1000.07
1017.58 1017.01 1016.51 1015.99 1015.40 1014.94 1014.13 1012.17 1011.23 1011.54 1010.91 1008.15 1006.13 1004.89 1002.02 1001.87 1001.78 1002.21 1002.82 1003.23 1003.82 1003.85 1002.95 1003.27 1002.68 1001.02 1000.25 1000.20 999.92 999.21 998.98 998.60 998.58 998.49 998.52 998.27 998.22 998.59 998.62 998.90 998.50 997.92 998.18 998.69 999.31
1017.01 1016.41 1015.82 1015.24 1014.55 1014.34 1013.95 1011.33 1008.36 1007.64 1006.33 1005.66 1004.73 1003.35 1002.41 1001.47 1001.11 1001.18 1002.37 1002.40 1002.24 1001.82 1001.86 1001.83 1000.53 999.74 999.79 999.80 1000.01 999.62 999.07 998.66 998.47 998.19 998.16 998.01 997.77 997.81 997.97 997.74 997.68 997.55 998.06 998.33 998.86
1016.34 1015.48 1014.80 1014.06 1013.44 1012.55 1011.38 1009.81 1008.34 1008.10 1005.86 1002.56 1001.12 1000.84 1000.51 1001.04 1000.00 999.77 1001.01 1000.88 1000.57 1000.49 1000.13 999.20 998.85 999.41 999.10 999.20 999.41 999.30 999.02 998.85 998.45 997.98 998.02 997.53 996.97 996.68 997.02 997.10 996.90 997.01 997.74 997.98 998.21
1016.14 1015.62 1015.05 1014.18 1012.44 1010.35 1009.06 1007.92 1007.54 1007.44 1004.49 999.12 997.30 997.41 998.38 999.54 998.99 998.39 999.68 999.99 999.47 998.95 998.87 998.49 998.11 998.17 998.50 998.66 998.89 998.53 999.09 999.16 998.82 998.45 997.39 997.81 996.48 995.91 996.18 996.06 996.00 996.22 996.59 997.18 997.82
1016.01 1015.46 1014.95 1014.64 1012.96 1010.27 1008.18 1007.68 1007.77 1007.37 1002.73 996.25 995.45 996.25 996.80 997.71 996.56 997.90 998.77 998.96 998.02 998.01 998.12 997.33 997.46 997.39 997.69 997.98 998.39 998.26 998.36 998.51 998.81 998.60 998.30 997.58 998.12 996.70 996.36 995.66 995.45 995.70 996.36 996.91 997.45
1015.29 1014.75 1014.28 1012.71 1010.99 1009.37 1009.06 1008.24 1007.88 1006.04 1000.30 996.44 995.14 995.79 996.10 996.84 997.02 996.35 997.68 998.75 997.99 997.28 997.22 996.92 997.13 996.98 996.99 997.65 997.99 998.33 998.26 998.25 998.38 998.21 997.78 997.19 998.39 998.08 997.83 997.22 995.37 995.59 996.19 996.88 997.32
1014.17 1013.52 1013.17 1012.15 1009.18 1007.16 1007.45 1007.94 1005.79 1002.19 998.77 995.75 995.15 994.99 995.36 995.70 996.46 996.00 996.87 997.50 996.93 996.66 996.12 996.70 995.98 996.45 996.63 996.77 997.40 997.73 997.75 997.57 997.82 997.17 996.87 996.80 997.58 997.34 999.33 999.37 995.60 995.64 997.53 998.66 999.01
1013.35 1011.92 1010.25 1008.62 1008.37 1008.41 1007.18 1006.33 1002.90 999.57 998.04 996.41 995.33 995.94 996.40 995.42 996.09 996.23 996.72 996.54 997.03 996.11 995.16 995.32 995.71 995.56 996.07 996.26 995.97 996.50 996.77 996.26 996.21 996.10 995.97 996.20 996.78 996.69 997.89 998.35 997.83 997.96 998.85 999.63 1000.11
1012.61 1009.26 1007.75 1006.11 1006.49 1007.52 1006.99 1003.82 1000.58 999.06 997.91 996.38 995.60 995.28 995.28 996.47 998.43 998.90 997.11 996.10 995.90 995.70 995.05 994.84 994.54 995.22 995.80 996.05 995.79 995.85 996.03 995.95 996.03 997.45 997.16 996.87 996.78 997.52 997.65 998.32 998.47 999.06 999.88 1000.70 1001.39
1012.18 1008.82 1005.23 1005.09 1006.78 1007.34 1006.19 1002.33 1000.07 998.49 997.39 996.97 996.72 996.93 997.21 997.22 999.58 1000.91 1000.55 997.85 996.16 995.67 995.13 995.39 995.28 995.02 995.66 996.17 996.16 995.95 996.79 996.64 996.34 997.49 997.55 997.41 997.54 996.02 996.92 997.68 998.61 999.51 1000.22 1001.33 1002.07
1011.42 1007.70 1005.47 1006.04 1007.50 1007.28 1004.49 1000.93 999.03 997.77 997.43 997.12 996.65 997.82 998.69 999.12 1000.16 1000.93 1000.69 998.76 996.16 995.08 995.38 996.30 996.31 995.82 995.67 995.69 995.84 996.07 996.79 997.87 997.26 996.90 997.31 998.00 998.57 999.43 997.87 996.77 998.09 999.31 1000.55 1001.53 1002.44
1011.74 1007.73 1005.14 1006.44 1007.06 1005.68 1003.14 1000.96 1000.85 998.49 997.83 998.14 997.80 997.94 998.97 1000.05 1000.62 1001.28 1000.63 999.88 997.55 994.53 994.82 995.72 995.80 996.23 996.06 996.17 996.53 995.91 996.28 998.05 998.01 998.72 998.59 998.29 998.04 999.24 999.74 997.24 998.30 999.46 1000.68 1001.84 1002.62
1011.64 1007.46 1003.96 1004.52 1005.33 1003.68 1002.90 1001.66 1000.23 999.96 998.68 998.50 998.15 998.04 999.01 1000.17 1001.14 1000.84 1000.39 998.96 997.77 995.49 994.18 995.13 995.54 996.91 998.07 999.29 997.47 996.94 997.26 997.64 998.79 999.42 1000.10 1000.25 999.61 999.07 999.28 998.80 999.58 1000.35 1001.52 1002.58 1003.22
1012.28 1007.61 1004.20 1004.83 1004.96 1004.66 1003.53 1001.55 1000.45 999.55 999.32 999.22 999.07 999.35 999.09 1000.48 1000.86 1000.80 1000.48 999.57 997.74 995.49 994.07 995.03 995.80 996.52 997.29 997.07 997.34 997.42 997.32 998.00 999.12 1000.49 1001.10 1001.18 1001.53 1001.10 1000.21 1000.17 1000.60 1001.39 1002.13 1002.84 1003.55
1012.74 1009.50 1008.77 1006.63 1005.57 1004.63 1003.53 1001.68 1000.51 1000.43 999.67 1000.05 999.72 999.25 999.90 1000.60 1001.07 1001.45 1001.63 1000.99 998.25 995.77 994.64 995.69 996.25 996.66 998.72 998.27 998.28 998.11 997.56 998.27 998.61 999.34 1000.07 999.99 1000.76 1001.67 1001.49 1002.04 1002.42 1002.19 1002.64 1003.31 1003.90
1012.77 1011.68 1010.70 1008.94 1006.78 1005.58 1003.73 1002.25 1001.67 1001.60 1001.46 1001.19 1000.73 1000.41 1000.41 1001.43 1000.92 1001.61 1002.05 1000.96 997.61 996.19 995.96 996.47 996.82 997.32 998.40 998.75 998.83 999.49 998.07 998.21 998.54 998.89 999.07 999.47 1000.28 1001.25 1002.41 1002.23 1002.66 1003.04 1003.41 1003.91 1004.75
1012.99 1012.62 1012.04 1010.03 1008.15 1007.25 1005.64 1004.41 1003.13 1002.86 1003.09 1003.13 1002.27 1001.48 1001.95 1002.45 1001.80 1001.41 1001.42 1001.15 999.75 997.54 997.31 996.23 996.38 997.64 998.28 998.80 998.73 998.65 998.03 998.04 998.36 999.00 999.28 999.68 1000.11 1000.44 1001.74 1002.38 1002.80 1003.50 1004.32 1005.21 1006.10
Wind_Speed
15 15 14 14 13 12 12 13 12 12 12 12 12 13 15 15 16 18 22 17 2 9 2 13 11 15 17 17 20 20 18 22 28 27 23 22 13 14 20 13 6 1 8 7 9
16 15 14 15 15 14 15 14 14 13 12 12 12 12 15 15 20 25 22 10 9 7 15 17 16 16 16 18 18 21 19 29 22 24 21 24 19 12 17 14 9 7 5 2 8
15 15 15 15 16 14 14 15 15 14 14 13 13 13 14 16 19 23 10 19 15 15 17 16 16 15 19 16 21 22 24 21 24 25 20 24 19 11 23 21 17 12 7 4 8
16 17 16 15 15 15 16 15 15 16 14 13 12 12 13 15 10 11 9 15 15 15 16 15 18 18 20 22 19 25 24 23 23 21 23 21 18 21 20 20 17 12 6 6 10
16 18 19 16 16 16 17 17 16 15 14 12 12 11 11 13 21 8 16 15 15 17 18 17 18 19 21 20 20 21 22 19 20 23 22 15 22 22 24 24 11 15 10 9 10
15 16 17 16 16 16 15 15 16 15 16 14 12 11 12 22 15 12 13 17 16 19 18 19 14 16 18 21 19 20 18 19 20 20 23 22 22 25 26 27 17 18 16 13 9
15 16 17 17 17 16 15 15 15 15 18 18 16 12 17 26 9 8 14 18 20 19 18 18 19 14 17 14 18 17 21 17 20 20 20 23 27 32 22 24 25 13 19 17 10
16 17 17 18 17 17 17 17 16 18 21 20 16 12 13 14 20 22 13 17 15 14 15 11 16 16 18 13 11 16 21 20 20 21 19 20 27 27 28 27 29 22 16 20 19
17 18 16 18 18 18 17 18 20 20 13 6 10 12 12 7 22 23 21 17 15 13 12 14 16 17 18 16 17 18 17 22 20 20 20 26 30 24 25 26 24 27 19 19 16
20 20 18 18 20 18 19 20 19 10 8 6 5 9 11 15 16 21 21 21 15 14 13 15 13 18 18 17 17 17 19 17 19 18 22 26 27 25 26 25 27 25 24 21 22
22 21 20 19 20 19 17 11 8 7 9 13 15 13 9 9 10 17 22 21 20 18 18 23 18 21 24 23 20 18 14 18 14 17 20 22 25 23 24 24 30 25 21 22 23
21 21 20 21 21 20 15 8 12 11 17 27 27 25 25 10 13 18 22 20 19 21 24 16 23 23 21 20 20 19 16 13 14 13 18 21 24 23 23 26 30 21 20 23 22
18 18 20 21 22 15 9 15 15 17 12 20 27 28 27 25 20 24 27 27 23 25 26 21 18 22 18 17 19 20 19 15 16 11 15 17 23 20 22 26 28 26 25 28 22
19 19 20 23 17 9 15 9 6 6 12 20 23 20 29 23 31 21 30 26 17 24 25 23 21 20 21 22 20 20 18 16 17 16 14 6 14 21 24 24 26 25 24 19 19
21 19 19 12 16 10 11 8 8 5 11 12 17 5 12 29 11 31 30 28 23 21 20 21 21 19 22 21 20 17 17 20 16 17 19 6 6 22 12 23 25 18 21 21 18
22 22 19 15 14 18 16 10 7 10 15 10 9 14 18 27 31 27 28 30 22 22 21 22 19 22 16 20 20 20 17 15 15 15 16 20 7 8 7 13 18 20 15 1 10
27 25 21 15 12 3 9 10 11 13 10 19 17 17 16 18 27 25 33 30 27 24 23 22 23 17 18 18 23 19 16 13 13 15 15 19 16 9 5 12 19 17 9 5 3
29 32 19 14 16 13 8 12 20 13 26 27 15 19 13 8 19 26 29 28 32 26 15 20 22 21 17 23 20 20 20 15 21 13 15 17 13 11 18 15 13 13 12 10 11
34 12 12 11 8 7 11 16 20 23 25 26 24 18 22 8 10 17 15 27 30 30 24 16 21 23 19 17 20 18 21 23 18 12 8 9 15 12 14 16 16 16 15 13 14
13 16 16 5 8 7 11 22 28 26 24 25 17 21 14 6 8 6 9 16 23 31 24 13 12 16 23 17 18 17 14 13 12 9 12 7 8 5 22 20 18 17 16 14 14
11 9 8 6 7 5 13 21 25 23 22 24 19 19 11 1 5 12 9 17 29 30 23 17 13 16 14 22 21 18 12 11 17 8 12 7 5 7 13 20 19 18 17 15 14
8 9 10 11 4 5 13 21 14 19 14 9 10 16 17 4 5 5 6 9 34 25 27 24 9 12 18 17 21 17 11 15 10 8 10 10 5 11 20 18 17 18 16 14 14
7 15 13 12 8 12 10 18 10 15 10 9 12 17 11 15 8 11 10 14 26 19 28 20 8 10 6 10 10 14 12 8 5 5 10 7 4 8 16 14 14 16 15 13 12
8 10 10 3 6 14 14 15 12 7 10 10 7 16 4 7 5 4 6 6 17 32 19 13 13 17 9 6 15 19 17 13 8 5 10 4 1 12 7 9 13 13 11 11 10
4 7 12 8 14 17 17 15 14 10 9 3 10 7 8 6 11 4 2 7 23 2 14 15 12 9 10 4 4 11 15 11 13 12 10 5 15 17 14 6 6 10 5 7 6
5 5 4 17 16 21 15 12 8 11 11 11 10 7 6 6 6 6 6 10 10 12 17 8 10 13 8 9 10 10 12 17 15 13 14 9 10 12 2 12 5 5 2 1 4
8 8 6 10 13 14 13 18 19 11 7 6 10 6 8 6 7 4 5 6 7 8 12 15 11 11 10 11 8 5 9 10 6 4 4 7 4 14 11 3 4 1 3 4 8
Wind_Direction
339 335 334 331 327 322 320 318 314 314 314 307 308 314 309 301 291 257 254 244 206 167 221 263 224 214 226 234 229 220 242 239 241 238 249 255 196 203 226 261 236 140 355 319 167
342 338 336 333 328 326 321 317 314 311 308 307 305 310 307 304 289 272 253 170 141 168 212 226 214 203 212 218 218 225 229 238 243 253 257 257 250 215 233 202 199 206 36 333 123
341 339 335 328 324 318 315 315 313 310 309 306 310 310 307 303 286 263 355 150 153 182 230 234 245 212 223 220 218 212 242 243 242 260 257 267 246 219 236 207 217 205 108 27 15
337 330 324 320 320 322 319 316 312 308 305 301 301 300 305 284 267 88 100 153 175 205 216 230 233 217 230 227 224 229 235 241 261 263 247 264 277 256 243 246 228 142 136 82 128
334 333 331 327 324 322 316 313 309 304 299 294 297 294 287 242 248 159 135 156 173 195 207 213 220 222 226 230 231 237 247 243 243 248 255 252 245 255 257 255 187 167 163 137 110
325 325 322 321 317 312 306 304 301 295 292 283 279 276 254 259 264 211 194 168 193 207 212 219 225 228 241 243 240 235 242 249 257 234 242 244 239 241 243 255 205 191 187 189 166
323 319 318 317 316 313 307 302 298 293 289 282 272 244 256 240 292 215 217 192 213 205 215 225 242 254 233 246 249 251 259 230 239 249 236 237 239 244 246 248 247 217 213 207 179
322 319 317 318 316 311 309 302 298 295 292 280 257 216 253 243 225 252 213 194 201 210 233 247 235 250 234 238 236 242 238 246 233 231 237 254 249 231 240 237 245 243 221 239 175
319 315 312 318 314 309 303 300 294 290 289 256 181 212 254 170 221 213 218 207 203 214 222 239 224 229 221 230 235 226 235 231 245 236 219 226 247 252 251 226 240 240 234 235 199
324 318 317 318 315 308 305 291 290 281 243 215 291 212 245 235 199 208 207 218 193 193 201 200 205 218 222 213 226 228 218 237 256 218 233 237 243 243 247 246 243 229 241 236 223
326 321 321 317 310 308 310 302 201 187 219 215 192 238 273 213 135 189 187 184 199 192 194 198 208 208 210 217 234 268 242 240 241 251 241 246 238 249 238 237 245 240 230 229 237
324 321 316 311 307 303 288 251 287 318 288 222 251 236 257 275 203 179 180 181 200 201 207 180 217 216 226 208 229 242 252 256 260 252 246 246 246 242 245 235 242 233 240 243 234
314 310 309 306 304 285 247 262 290 310 270 266 236 225 231 221 223 180 186 202 193 207 201 207 212 225 210 217 215 224 239 244 261 260 270 257 262 237 232 240 237 222 228 241 230
310 310 312 319 281 348 282 291 273 251 274 269 210 239 214 216 224 206 194 202 196 212 215 221 226 194 215 218 214 220 220 248 263 272 267 298 279 225 229 229 228 228 225 227 232
315 313 308 306 302 273 300 315 336 227 274 323 133 117 206 203 172 217 180 207 211 211 216 208 226 205 210 214 218 231 225 219 232 254 268 231 233 282 254 217 217 207 217 219 231
313 311 306 285 249 251 262 287 260 236 250 261 174 190 213 201 227 186 186 216 222 219 207 226 205 229 215 213 221 219 238 249 231 237 247 255 182 243 256 303 217 192 201 305 259
312 308 293 275 255 331 210 219 227 234 279 248 255 211 229 188 214 225 189 196 213 216 212 205 225 210 210 209 208 216 222 223 226 229 238 251 196 138 124 313 239 113 114 130 140
314 306 276 249 219 251 250 222 244 248 238 260 274 287 162 320 207 227 198 194 212 216 211 198 206 199 197 216 211 208 216 227 215 219 227 211 263 136 166 215 106 101 104 112 102
310 299 289 258 218 198 228 227 247 250 263 278 284 281 271 150 136 3 241 206 202 215 219 214 214 193 208 220 230 204 218 236 256 306 250 271 150 152 146 145 133 126 119 114 108
307 292 267 177 169 206 233 251 267 272 263 270 271 294 253 272 157 163 290 245 236 207 223 213 239 200 195 201 230 242 247 248 242 193 280 224 318 157 163 154 137 133 123 120 118
292 295 78 78 123 222 239 249 253 253 256 276 269 241 281 231 223 180 212 280 231 208 199 211 229 209 183 204 214 223 179 255 267 294 252 144 227 257 268 147 145 134 132 133 129
301 286 135 157 227 235 243 268 329 292 294 282 287 265 273 181 186 230 241 243 303 191 196 198 234 183 205 197 219 255 279 190 234 253 280 295 130 139 298 134 130 131 130 125 120
282 287 264 208 258 265 268 269 286 260 295 311 268 280 134 192 216 217 234 252 271 279 194 186 204 172 204 290 215 220 219 270 46 335 192 263 72 157 189 118 127 119 120 128 120
290 295 315 213 294 305 312 308 286 308 277 272 249 283 188 173 226 271 255 331 290 260 181 193 213 195 208 183 196 205 207 205 148 85 261 202 63 325 21 113 121 127 137 133 115
273 300 4 323 320 308 302 287 317 2 326 40 271 251 196 232 202 196 188 248 265 173 146 166 205 182 128 205 129 272 200 212 232 229 245 306 188 204 200 194 197 127 149 127 124
298 330 295 292 320 330 319 305 344 337 324 337 311 40 231 176 224 160 192 228 188 165 174 164 201 207 169 151 106 273 204 180 215 201 217 136 128 144 173 200 152 153 130 189 128
333 324 295 308 328 324 313 335 322 11 25 286 303 350 37 24 346 157 159 273 295 134 178 197 148 156 180 199 194 228 180 192 193 229 241 228 15 132 136 193 164 109 76 19 48